Lake Kissimmee Weather Center

Moon Phase Calendar



Lake Kissimmee Water Level
Online Cameras

 


      

Current Conditions in Osceola
1/18/2022 10:34:21 AM

49°F
Feels Like 47
Clear
Humidity
76%
Pressure
30.24"
Wind
5.7 mph (N)
Dew Point
42°F
UV Index
4/10 (Moderate)
Visibility
6 mi

Hourly Forecast

Date & Time Tue, Jan 18
10:00 AM
Tue, Jan 18
11:00 AM
Tue, Jan 18
12:00 PM
Tue, Jan 18
1:00 PM
Tue, Jan 18
2:00 PM
Tue, Jan 18
3:00 PM
Tue, Jan 18
4:00 PM
Tue, Jan 18
5:00 PM
Tue, Jan 18
6:00 PM
Tue, Jan 18
7:00 PM
Tue, Jan 18
8:00 PM
Tue, Jan 18
9:00 PM
Tue, Jan 18
10:00 PM
Tue, Jan 18
11:00 PM
Wed, Jan 19
12:00 AM
Wed, Jan 19
1:00 AM
Wed, Jan 19
2:00 AM
Wed, Jan 19
3:00 AM
Wed, Jan 19
4:00 AM
Wed, Jan 19
5:00 AM
Wed, Jan 19
6:00 AM
Wed, Jan 19
7:00 AM
Wed, Jan 19
8:00 AM
Wed, Jan 19
9:00 AM
Wed, Jan 19
10:00 AM
Wed, Jan 19
11:00 AM
Wed, Jan 19
12:00 PM
Wed, Jan 19
1:00 PM
Wed, Jan 19
2:00 PM
Wed, Jan 19
3:00 PM
Wed, Jan 19
4:00 PM
Wed, Jan 19
5:00 PM
Wed, Jan 19
6:00 PM
Wed, Jan 19
7:00 PM
Wed, Jan 19
8:00 PM
Wed, Jan 19
9:00 PM
Wed, Jan 19
10:00 PM
Wed, Jan 19
11:00 PM
Thu, Jan 20
12:00 AM
Thu, Jan 20
1:00 AM
Thu, Jan 20
2:00 AM
Thu, Jan 20
3:00 AM
Thu, Jan 20
4:00 AM
Thu, Jan 20
5:00 AM
Thu, Jan 20
6:00 AM
Thu, Jan 20
7:00 AM
Thu, Jan 20
8:00 AM
Thu, Jan 20
9:00 AM
Condition
Clear

Clear

Clear

Clear

Clear

Clear

Clear

Clear

Clear

Clear

Clear

Clear

Clear

Clear

Clear

Clear

Clouds

Clear

Clear

Clear

Clear

Clear

Clear

Clear

Clear

Clear

Clear

Clear

Clear

Clear

Clear

Clear

Clear

Clear

Clouds

Clouds

Clouds

Clouds

Clouds

Clouds

Clouds

Clouds

Clouds

Clouds

Clouds

Clouds

Clear

Clear
Temperature 49°F49°F51°F53°F56°F59°F62°F60°F55°F54°F51°F50°F50°F49°F49°F49°F49°F49°F49°F49°F49°F49°F51°F56°F61°F66°F69°F70°F72°F72°F72°F70°F65°F63°F62°F63°F63°F62°F61°F61°F60°F58°F57°F56°F56°F56°F57°F62°F
Feels Like 47°F47°F49°F51°F54°F57°F59°F58°F52°F51°F49°F48°F48°F47°F47°F47°F47°F47°F47°F47°F47°F47°F49°F55°F60°F65°F68°F70°F71°F71°F71°F69°F64°F62°F61°F62°F62°F61°F60°F60°F59°F58°F57°F56°F55°F55°F57°F61°F
Cloudiness 0%0%0%0%0%0%0%0%0%0%0%0%0%0%0%0%11%8%7%5%4%3%0%0%0%0%0%0%4%2%5%6%7%8%20%33%45%53%52%50%33%29%21%16%13%11%0%0%
Visibility 6 mi6 mi6 mi6 mi6 mi6 mi6 mi6 mi6 mi6 mi6 mi6 mi6 mi6 mi6 mi6 mi6 mi6 mi6 mi6 mi6 mi6 mi6 mi6 mi6 mi6 mi6 mi6 mi6 mi6 mi6 mi6 mi6 mi6 mi6 mi6 mi6 mi6 mi6 mi6 mi6 mi6 mi6 mi6 mi6 mi6 mi6 mi6 mi
Precipitation 0%0%0%0%0%0%0%0%0%0%0%0%0%0%0%0%0%0%0%0%0%0%0%0%0%0%0%0%0%0%0%0%0%0%0%0%0%0%0%0%0%0%0%0%0%0%0%0%
Humidity 70%76%67%58%47%36%28%35%37%43%61%69%71%72%74%76%78%79%80%81%82%83%81%70%62%57%53%50%47%46%46%53%61%64%65%65%64%66%70%70%74%79%83%84%84%83%79%69%
Dew Point 40°F42°F40°F39°F36°F32°F28°F32°F29°F31°F38°F40°F41°F41°F41°F41°F42°F43°F43°F43°F44°F44°F45°F47°F48°F50°F51°F51°F51°F50°F50°F52°F51°F50°F50°F51°F51°F51°F51°F51°F51°F52°F52°F51°F51°F50°F51°F52°F
Pressure 30.24"30.24"30.24"30.24"30.21"30.18"30.15"30.18"30.18"30.21"30.24"30.24"30.27"30.27"30.27"30.24"30.21"30.21"30.21"30.21"30.21"30.24"30.27"30.27"30.27"30.27"30.24"30.21"30.15"30.15"30.15"30.15"30.15"30.18"30.18"30.18"30.18"30.15"30.15"30.12"30.12"30.12"30.12"30.12"30.15"30.15"30.15"30.18"
Wind Speed 5.7 mph5.7 mph5.9 mph6 mph6.1 mph6 mph5.1 mph4.4 mph3.8 mph5.6 mph6.6 mph6 mph5.4 mph5.5 mph4.5 mph4.6 mph4.8 mph4.6 mph5.1 mph4.5 mph4.2 mph4.3 mph4.4 mph3.8 mph4 mph4 mph6 mph6.8 mph6.6 mph6 mph6.1 mph5.6 mph5.6 mph5.6 mph5.6 mph4.8 mph4.9 mph5.6 mph6 mph6.8 mph6.6 mph5.9 mph5.3 mph4.4 mph3.4 mph2.3 mph3.2 mph4 mph
Wind
Direction
354°
N

N
13°
NNE
17°
NNE
20°
NNE
23°
NNE
33°
NNE
33°
NNE
28°
NNE
60°
ENE
80°
E
70°
ENE
60°
ENE
56°
NE
33°
NNE
41°
NE
58°
ENE
50°
NE
31°
NNE
23°
NNE
16°
NNE
21°
NNE
13°
NNE
42°
NE
62°
ENE
88°
E
117°
ESE
137°
SE
142°
SE
152°
SSE
147°
SSE
139°
SE
139°
SE
115°
ESE
101°
E
98°
E
120°
ESE
148°
SSE
149°
SSE
162°
SSE
196°
SSW
226°
SW
244°
WSW
255°
WSW
285°
WNW
195°
SSW
243°
WSW
260°
W

Daily Forecast

Date High Low Precip. Humidity
Today
Jan 18

Clear
62 °F
45 °F
0%
67%
Wednesday
Jan 19

Clear
72 °F
49 °F
0%
53%
Thursday
Jan 20

Clouds
75 °F
56 °F
0%
46%
Friday
Jan 21

Rain
74 °F
58 °F
100%
63%
Saturday
Jan 22

Rain
73 °F
64 °F
100%
87%
Sunday
Jan 23

Rain
63 °F
53 °F
100%
63%
Monday
Jan 24

Clouds
63 °F
45 °F
0%
28%
Tuesday
Jan 25

Clouds
60 °F
50 °F
3%
36%
Wednesday
Jan 26

Rain
64 °F
50 °F
92%
58%
Thursday
Jan 27

Clouds
66 °F
52 °F
0%
57%
Friday
Jan 28

Clouds
65 °F
49 °F
0%
45%
Saturday
Jan 29

Clouds
63 °F
49 °F
0%
33%
Sunday
Jan 30

Clear
63 °F
44 °F
0%
34%
Monday
Jan 31

Clouds
68 °F
46 °F
0%
38%
Tuesday
Feb 1

Clear
75 °F
54 °F
5%
44%
Wednesday
Feb 2

Rain
77 °F
60 °F
55%
57%

Temperature 8-14 Day Outlook



Precipitation 8-14 Day Outlook




Quick Links
Lake Kissimmee News
Lake Kissimmee Photos
Lake Kissimmee Videos




About Us
Contact Us
Site Map
Search Site
Advertise With Us
   
Kissimmee.USLakes.info
THE LAKE KISSIMMEE WEBSITE

Copyright 2022, Lakes Online
Privacy    |    Legal